This demonstration page uses our WeatherBlox Daily Observations layout. Learn more.

Left ArrowRight Arrow

Hourly Observations for August 1, 2021

Temp ( °F °C ) Dew Point ( °F °C ) Humidity (%) Winds ( mph kmh ) Pressure ( in mb ) Visibility ( mi km ) Precip ( " mm )
12:56 am 00:56 Clear with Mist and Fog 66 18.9 64 17.8 93 93 NW 7 11 30.19 1022 4 6 0.00 0.00
1:56 am 01:56 Clear with Mist and Fog 66 18.9 64 17.8 93 93 N 5 7 30.19 1023 4 6 0.00 0.00
2:56 am 02:56 Partly Cloudy with Mist and Fog 65 18.3 63 17.2 93 93 NNE 7 11 30.21 1023 4 6 0.00 0.00
3:56 am 03:56 Mostly Clear with Mist and Fog 64 17.8 62 16.7 93 93 N 6 9 30.21 1023 3 5 0.00 0.00
4:56 am 04:56 Mostly Cloudy with Mist and Fog 64 17.8 61 16.1 90 90 NNW 3 6 30.21 1023 5 8 0.00 0.00
5:56 am 05:56 Clear with Mist and Fog 61 16.1 59 15 93 93 NW 5 7 30.22 1023 5 8 0.00 0.00
6:56 am 06:56 Sunny with Mist and Fog 61 16.1 59 15 93 93 NW 6 9 30.23 1024 4 6 0.00 0.00
7:56 am 07:56 Sunny with Mist and Fog 63 17.2 59 15 87 87 NW 7 11 30.24 1024 5 8 0.00 0.00
8:07 am 08:07 Partly Cloudy with Mist and Fog 63 17 59 15 88 88 NNW 6 9 30.24 1024 3 4 0.00 0.00
8:17 am 08:17 Partly Cloudy with Mist and Fog 63 17 59 15 88 88 NNW 6 9 30.24 1024 1 2 0.00 0.00
8:27 am 08:27 Partly Cloudy with Mist and Fog 64 18 61 16 88 88 NNW 6 9 30.23 1024 3 5 0.00 0.00
8:56 am 08:56 Hazy 66 18.9 60 15.6 81 81 NNW 5 7 30.26 1025 6 10 0.00 0.00
9:33 am 09:33 Hazy 70 21 63 17 78 78 NNW 8 13 30.23 1024 4 6 0.00 0.00
9:56 am 09:56 Sunny 72 22.2 59 15 64 64 N 8 13 30.26 1025 10 16 0.00 0.00
10:56 am 10:56 Sunny 75 23.9 56 13.3 52 52 NNE 7 11 30.26 1025 10 16 0.00 0.00
11:56 am 11:56 Sunny 77 25 58 14.4 52 52 N 9 15 30.27 1025 10 16 0.00 0.00
12:56 pm 12:56 Sunny 79 26.1 53 11.7 41 41 N 10 17 30.25 1024 10 16 0.00 0.00
1:56 pm 13:56 Mostly Sunny 81 27.2 56 13.3 42 42 NNE 9 15 30.23 1024 10 16 0.00 0.00
2:56 pm 14:56 Partly Cloudy 80 26.7 55 12.8 42 42 N 12 19 30.22 1023 10 16 0.00 0.00
3:56 pm 15:56 Mostly Cloudy 81 27.2 55 12.8 41 41 NNE 14 22 30.21 1023 10 16 0.00 0.00
4:56 pm 16:56 Mostly Sunny 81 27.2 56 13.3 42 42 NE 10 17 30.20 1023 10 16 0.00 0.00
5:56 pm 17:56 Sunny 80 26.7 55 12.8 42 42 NE 10 17 30.19 1022 9 14 0.00 0.00
6:56 pm 18:56 Sunny 78 25.6 58 14.4 50 50 NE 9 15 30.17 1022 8 13 0.00 0.00
7:56 pm 19:56 Sunny 74 23.3 62 16.7 67 67 E 7 11 30.17 1022 7 11 0.00 0.00
8:56 pm 20:56 Hazy 68 20 62 16.7 81 81 E 7 11 30.19 1022 6 10 0.00 0.00
9:56 pm 21:56 Clear 66 18.9 62 16.7 87 87 SSE 6 9 30.21 1023 9 14 0.00 0.00
10:56 pm 22:56 Clear 66 18.9 61 16.1 84 84 ESE 5 7 30.22 1023 9 14 0.00 0.00
11:56 pm 23:56 Clear 63 17.2 59 15 87 87 SSW 6 9 30.22 1023 8 13 0.00 0.00

Powered by AerisWeather